Regional Weather Roundup
Issued by NWS Albany, NY

Home | Current Version | Previous Version | Text Only | Print | Product List | Glossary On
Versions: 1 2 3 4 5 6 7 8 9 10 11 12 13 14 15 16 17 18 19 20 21 22 23 24 25 26 27 28 29 30 31 32 33 34 35 36 37 38 39 40 41 42 43 44 45 46 47 48 49 50
000
ASUS41 KALY 302110
RWRALY

NEW YORK STATE HOURLY WEATHER ROUNDUP
NATIONAL WEATHER SERVICE ALBANY NY
500 PM EDT TUE JUN 30 2015

NOTE: "FAIR" INDICATES FEW OR NO CLOUDS BELOW 12,000 FEET WITH NO
SIGNIFICANT WEATHER AND/OR NO OBSTRUCTIONS TO VISIBILITY.

NYZ032-033-038>043-046>054-057>066-NYZ062>081-302200-
EAST


CITY           SKY/WX    TMP DP  RH WIND       PRES   REMARKS
ALBANY         CLOUDY    68  64  87 CALM      29.91F
GLENS FALLS    LGT RAIN  63  59  87 NE5       29.92F
POUGHKEEPSIE   CLOUDY    73  68  84 N5        29.88F
NEWBURGH       PTSUNNY   73  64  73 SE7       29.89F
MONTGOMERY     LGT RAIN  69  66  90 N8        29.88F
WHITE PLAINS   PTSUNNY   76  59  55 SE10G18   29.91F
ISLIP          PTSUNNY   77  62  59 S16       29.92F
NEW YORK CITY  PTSUNNY   77  60  55 S20G26    29.89F
CENTRAL PARK   PTSUNNY   76  61  59 VRB7      29.92F
$$

NYZ005>009-017-018-044>046-055-056-302200-
CENTRAL


CITY           SKY/WX    TMP DP  RH WIND       PRES   REMARKS
FULTON         MOSUNNY   68  62  81 E7        29.79F
SYRACUSE       CLOUDY    74  68  81 E12       29.78F
ROME           PTSUNNY   67  63  87 SE14      29.85F
ELMIRA         PTSUNNY   79  65  62 S9        29.78F
BINGHAMTON     PTSUNNY   70  66  87 SE12      29.84F
MONTICELLO     CLOUDY    64  63  94 E7        29.92F
$$

NYZ026>034-041>043-302200-
NORTH


CITY           SKY/WX    TMP DP  RH WIND       PRES   REMARKS
WATERTOWN      CLOUDY    65  62  90 NE7       29.81F
FORT DRUM      NOT AVBL
MASSENA        LGT RAIN  68  57  68 SE6       29.89F
SARANAC LAKE   CLOUDY    61  57  87 E6        29.90F
PLATTSBURGH    LGT RAIN  65  61  87 S8        29.92F
$$

NYZ001>004-010>016-019>021-302200-
WEST


CITY           SKY/WX    TMP DP  RH WIND       PRES   REMARKS
NIAGARA FALLS  PTSUNNY   73  61  65 W14       29.75F
BUFFALO        PTSUNNY   73  61  65 SW13      29.77F
DUNKIRK        MOSUNNY   69  61  75 NW8       29.78F
JAMESTOWN      PTSUNNY   72  59  64 SW6       29.80F
WELLSVILLE     LGT RAIN  66  62  87 W7        29.84F FOG
ROCHESTER      LGT RAIN  73  65  75 N7        29.76F
PENN YAN       MOSUNNY   76  63  64 SW7       29.79F
$$

             KEY
       WCI = WIND CHILL INDEX
       VSB = VISIBILITY
       HX  = HEAT INDEX
$$



USA.gov is the U.S. government's official web portal to all federal, state and local government web resources and services.